Location: Gaast
(52.9002°N, 5.8891°E)
Time: 19:15:16
(UTC+00:00)

Daily predictions for brighter satellites

Satellite Brightness Start Highest point End
(mag) Time Altitude Azimuth Time Altitude Azimuth Time Altitude Azimuth
USA 215 3.4 16:05:17 10° ESE 16:11:52 85° SSW 16:18:27 10° WNW
Cosmos 2263 Rocket 4.1 16:12:14 10° WNW 16:16:08 19° NNW 16:20:04 10° NNE
Cosmos 2344 4.0 16:09:34 10° NW 16:16:39 47° NNE 16:25:19 10° E
Cosmos 1844 Rocket 3.7 16:12:21 10° WSW 16:17:38 42° NW 16:22:59 10° NNE
Cosmos 1025 Rocket 3.9 16:14:01 10° NNW 16:18:15 55° W 16:22:26 10° S
Cosmos 1802 Rocket 4.1 16:12:41 10° S 16:19:06 79° E 16:25:32 10° NNE
ARIANE 6 FM1 Upper Stage 3.8 16:16:10 10° W 16:19:46 32° NNW 16:23:21 10° NE
Iridium 4 Rocket 3.3 16:15:44 10° S 16:20:42 89° E 16:25:16 10° N
SAR-Lupe-4 4.1 16:18:01 10° SE 16:21:20 37° ENE 16:24:41 10° N
ISS -2.0 16:25:26 10° SSW 16:28:04 22° SSE 16:30:41 10° E
COSMOS 2406 4.0 16:23:47 10° NNW 16:28:51 32° NE 16:33:54 10° ESE
Cosmos 1833 Rocket 3.5 16:23:22 10° NW 16:28:55 59° WSW 16:34:26 10° SSE
USA 281 4.4 16:25:23 10° ENE 16:30:04 21° NNE 16:34:46 10° NNW
CZ-2D R/B 3.3 16:27:40 10° SE 16:30:35 35° ENE 16:33:30 10° N
Cosmos 407 Rocket 4.2 16:27:01 10° SSE 16:31:35 33° ESE 16:36:08 10° NE
Cosmos 1484 Rocket 3.2 16:29:17 10° S 16:32:45 60° WSW 16:36:17 10° NNW
Cosmos 2016 Rocket 4.1 16:26:41 10° S 16:33:00 84° E 16:39:25 10° NNE
Cosmos 1812 3.8 16:32:01 10° ESE 16:33:38 14° E 16:34:34 12° ENE
Tsikada Rocket 4.1 16:27:45 10° N 16:34:15 85° E 16:40:37 10° S
CBERS-1 4.3 16:30:05 10° S 16:35:11 74° WSW 16:40:20 10° NNW
IRS-P3 4.4 16:30:49 10° SE 16:35:52 46° ENE 16:40:57 10° N
Cosmos 1606 4.2 16:34:15 10° SW 16:36:27 23° WNW 16:38:41 10° NNW
Cosmos 2084 Rocket 3.4 16:35:57 10° SW 16:40:09 89° NW 16:44:07 12° NE
SMAP 3.0 16:38:18 10° SSE 16:42:57 76° ENE 16:47:37 10° NNW
Cosmos 540 Rocket 3.4 16:38:22 10° NNW 16:43:32 72° ENE 16:48:38 10° SSE
Cosmos 44 Rocket 4.3 16:40:15 10° S 16:44:17 27° ESE 16:47:38 14° ENE
SJ 16-02 2.9 16:44:19 10° SE 16:46:50 15° E 16:47:54 14° ENE
Cosmos 2297 Rocket 4.2 16:45:28 10° NNW 16:47:46 12° N 16:50:04 10° NNE
SPOT 1/Viking Rocket 4.1 16:43:07 10° SE 16:47:47 36° ENE 16:52:31 10° N
Radarsat 4.5 16:42:41 10° SSE 16:47:51 78° ENE 16:53:03 10° NNW
Cosmos 1869 3.5 16:45:17 10° SSE 16:48:32 37° E 16:51:47 10° NNE
YAOGAN 1 3.6 16:46:13 10° ESE 16:49:38 24° ENE 16:53:04 10° N
IGS 5A 3.9 16:46:09 10° S 16:50:05 63° WSW 16:54:04 10° NNW
SL-16 R/B 2.7 16:45:30 10° NNE 16:51:49 82° WNW 16:58:03 10° SSW
Cosmos 1763 Rocket 3.5 16:46:43 10° NNW 16:51:59 87° WSW 16:57:08 10° SSE
SAR-Lupe-5 4.4 16:51:21 10° NNE 16:53:58 74° WNW 16:56:37 10° SSW
Landsat 7 3.7 16:50:28 10° SSE 16:55:06 73° ENE 16:59:46 10° N
Nadezhda 4 Rocket 4.3 16:51:17 10° N 16:57:14 42° ENE 17:03:06 10° SE
Timation 1 Rocket 4.4 16:51:41 10° NW 16:57:41 84° WSW 17:03:39 10° SSE
RESURS DK-1 2.6 16:53:46 10° NW 16:57:47 71° WSW 17:01:45 10° SSE
Spot 4 Rocket 4.5 16:54:05 10° SE 16:58:45 38° ENE 17:03:26 10° N
Cosmos 1140 Rocket 3.5 16:55:17 10° SSW 17:00:28 88° WNW 17:05:40 10° NNE
Aureole 3 Rocket 3.0 16:58:48 10° SSE 17:01:32 31° E 17:03:44 15° NE
CZ-4C R/B 3.0 16:57:05 10° W 17:01:42 40° NNW 17:06:52 13° NE
Resurs 1-3 4.3 17:00:09 10° SE 17:03:53 30° ENE 17:07:39 10° N
UNK 3.7 17:00:13 10° NNE 17:04:52 82° ESE 17:09:29 10° SSW
Meteor 1-28 Rocket 3.7 17:01:44 10° N 17:05:02 52° WNW 17:08:19 10° SSW
SJ-6F 4.2 17:03:06 10° SSE 17:07:00 69° ENE 17:10:55 10° N
Meteor 2-12 Rocket 4.4 17:02:07 10° N 17:08:16 88° E 17:14:20 10° S
Cosmos 1536 Rocket 3.8 17:06:43 10° N 17:11:00 45° ENE 17:15:14 10° SSE
Cosmos 1400 Rocket 3.8 17:07:58 10° SE 17:11:02 24° E 17:11:08 23° E
Cosmos 371 Rocket 4.4 17:07:43 10° SSE 17:11:21 22° E 17:12:04 21° E
SJ-12 3.8 17:07:40 10° SSE 17:11:28 79° WSW 17:15:17 10° NNW
SAR-Lupe-3 3.8 17:13:46 31° NE 17:14:47 55° ESE 17:17:22 10° S
Cosmos 489 Rocket 4.4 17:11:29 10° NNW 17:17:45 64° ENE 17:23:54 10° SE
Okean 2 Rocket 3.8 17:14:36 10° SSE 17:18:25 30° E 17:20:03 23° NE
ATLAS CENTAUR R/B 3.1 17:23:23 10° WNW 17:25:52 18° NNW 17:27:35 13° NNE
COSMO-SKYMED 1 3.2 17:26:49 29° E 17:26:49 29° E 17:30:27 10° SSE
NOAA 6 4.3 17:22:05 10° SE 17:26:54 42° ENE 17:31:44 10° N
SL-12 R/B(2) 4.4 17:19:23 10° SSW 17:27:26 71° SE 17:35:47 16° NE
Geosat 4.3 17:25:22 21° ESE 17:28:24 45° NE 17:33:10 10° NNW
Resurs 01 Rocket 2.8 17:30:11 24° NE 17:30:11 24° NE 17:33:02 10° N
Cosmos 1943 Rocket 2.1 17:25:22 10° SSW 17:30:57 75° ESE 17:35:17 17° NE
Timation 2 Rocket 4.1 17:25:29 10° SSW 17:32:22 79° ESE 17:38:22 14° NE
Cosmos 841 Rocket 3.5 17:27:31 10° NNW 17:32:45 63° ENE 17:37:57 10° SE
Cosmos 2058 2.8 17:29:02 10° NNW 17:33:01 86° W 17:37:00 10° S
Cosmos 2251 Rocket 3.5 17:29:49 10° S 17:34:59 59° ESE 17:38:36 20° NE
Cosmos 2227 Rocket 4.3 17:34:11 10° NNW 17:36:25 12° N 17:38:40 10° NNE
SJ-7 4.1 17:33:23 10° SSE 17:37:01 61° ENE 17:40:41 10° N
BREEZE-M DEB (TANK) 3.1 17:35:15 10° SW 17:37:54 44° SSE 17:39:49 29° ESE
Cosmos 2082 Rocket 2.4 17:32:19 10° NW 17:37:56 71° WSW 17:43:31 10° SSE
ATLAS 2AS CENTAUR R/B 2.9 17:32:13 10° NW 17:38:53 52° NNE 17:42:14 29° E
Cosmos 1346 Rocket 3.4 17:36:06 10° N 17:38:39 33° NNE 17:38:39 33° NNE
IRAS Rocket 4.1 17:38:36 10° SSE 17:44:09 81° ENE 17:49:42 10° NNW
Cosmos 1602 4.0 17:41:18 10° NNW 17:44:18 51° W 17:47:17 10° S
Cosmos 2278 Rocket 2.1 17:38:47 10° SSW 17:44:27 87° ESE 17:48:33 20° NNE
MOS 1 Rocket 3.6 17:42:04 10° S 17:46:22 64° WSW 17:50:56 10° NNW
Cosmos 1464 Rocket 3.9 17:44:47 10° S 17:51:03 75° E 17:57:16 10° NNE
ARIANE 5 R/B 4.0 17:46:54 10° SSW 17:51:30 37° W 17:56:08 10° NNW
CZ-2D R/B 3.6 17:47:57 10° S 17:52:06 77° WSW 17:56:21 10° NNW
Cosmos 1862 3.4 17:51:50 10° NNW 17:55:26 65° W 17:59:02 10° S
PSLV R/B 3.3 17:53:51 10° SSE 17:57:53 90° SE 18:01:56 10° NNW
ARIANE 6 FM1 Upper Stage 4.2 17:56:38 10° NW 17:59:47 22° N 17:59:56 22° N
Cosmos 2151 Rocket 3.5 17:57:04 10° S 18:01:33 89° W 18:05:04 17° N
Cosmos 2263 Rocket 4.3 18:00:17 10° NNW 18:02:28 12° N 18:04:12 11° NNE
Cosmos 1190 Rocket 3.9 17:57:29 10° SSW 18:02:47 81° ESE 18:05:27 31° NNE
ISS -3.1 18:01:06 10° WSW 18:03:52 49° SSW 18:03:52 49° SSW
Cosmos 2034 Rocket 3.9 17:58:52 10° S 18:04:59 65° E 18:11:14 10° NNE
Cosmos 1812 3.6 18:03:07 10° SW 18:05:48 34° WNW 18:06:21 31° NW
Cosmos 676 Rocket 4.0 18:00:44 10° S 18:05:55 57° ESE 18:06:42 51° ENE
SKYMED 2 3.5 18:03:52 24° NNE 18:06:28 86° WNW 18:10:49 10° SSW
Okean 1 Rocket 2.9 18:03:51 10° S 18:08:14 72° E 18:08:25 71° ENE
Cosmos 1656 Rocket 4.1 18:03:23 10° S 18:08:00 41° SE 18:08:00 41° SE
Cosmos 220 Rocket 3.7 18:07:20 10° NNW 18:11:16 78° NNE 18:11:16 78° NNE
Cosmos 407 Rocket 4.3 18:08:21 10° SW 18:13:21 47° NW 18:17:08 17° NNE
USA 281 3.3 18:11:29 42° ESE 18:13:27 56° NE 18:19:51 10° NNW
COSMOS 2406 3.4 18:07:56 10° NW 18:13:36 69° WSW 18:19:01 11° SSE
Sich 1 Rocket 3.5 18:09:27 10° S 18:13:59 82° E 18:14:56 56° NNE
Cosmos 1954 Rocket 3.9 18:09:56 10° SSW 18:15:13 84° ESE 18:16:54 45° NNE
Cosmos 1092 Rocket 3.8 18:09:09 10° N 18:15:26 72° ENE 18:21:36 10° SSE
SL-19 R/B 4.5 18:14:19 10° S 18:19:27 64° WSW 18:24:42 10° NNW
Cosmos 2026 Rocket 3.8 18:14:19 10° N 18:20:27 85° E 18:26:36 10° S
SJ 16-02 1.3 18:20:05 10° SSW 18:24:23 76° WNW 18:24:29 75° NW
YAOGAN 1 3.4 18:21:07 10° S 18:25:15 49° W 18:29:25 10° NNW
Cosmos 44 Rocket 3.5 18:20:32 10° SW 18:25:21 65° NW 18:26:14 54° N
Cosmos 2344 3.9 18:24:00 10° NW 18:31:46 80° SW 18:38:34 24° SE
Cosmos 2297 Rocket 4.0 18:30:17 10° NNW 18:33:09 18° NNE 18:33:09 18° NNE
Meteor 2-3 Rocket 4.0 18:30:42 10° NNW 18:36:22 67° W 18:41:57 10° S
Cosmos 1400 Rocket 4.3 18:42:49 10° SW 18:45:48 34° W 18:45:48 34° W
Cosmos 304 Rocket 4.2 18:44:35 10° SW 18:48:47 59° W 18:48:47 59° W
Cosmos 371 Rocket 3.7 18:46:22 10° SW 18:50:35 59° W 18:50:35 59° W
CZ-4C R/B 3.5 18:46:26 10° WNW 18:51:26 32° N 18:51:50 31° NNE
Okean 2 Rocket 4.5 18:52:14 10° SW 18:56:18 36° WNW 18:57:20 31° NW
COSMO-SKYMED 1 4.2 19:03:11 31° W 19:03:11 31° W 19:05:58 10° SW
Resurs 01 Rocket 3.4 19:07:36 27° NW 19:07:36 27° NW 19:09:50 10° NNW
BREEZE-M DEB (TANK) 4.3 19:09:02 10° WSW 19:11:47 53° SW 19:11:47 53° SW
Cosmos 1943 Rocket 3.8 19:10:22 10° W 19:15:14 29° NW 19:16:48 26° NNW
Cosmos 2227 Rocket 4.4 19:18:52 10° NNW 19:20:29 15° N 19:20:29 15° N
Cosmos 2278 Rocket 3.9 19:24:28 10° W 19:29:14 27° NW 19:30:23 25° NNW
ATLAS 2AS CENTAUR R/B 3.0 19:23:19 10° NW 19:29:41 58° WSW 19:29:41 58° WSW
USA 281 4.2 19:58:22 41° WSW 19:58:22 41° WSW 20:04:21 10° NW
